User: anonymous   Login
Location: Unspecified
(0.0000°N, 0.0000°E)
Time: 03:04:13
(UTC+00:00)
Language:

NOSS 7 (D) - Orbit

View from above orbital plane
View from above orbital plane
View from above satellite
View from above satellite

Ground track
Ground track

The orbit data is extracted from the following two-line orbital elements,

1 16623U 86014D   18111.05246385 0.00000300  00000-0  33275-4 0    02
2 16623  63.3025 108.2191 0903586  61.8131 298.1869 13.45428059    06
Epoch (UTC): 21 April 2018 01:15:32
Eccentricity: 0.0903586
inclination: 63.3025°
perigee height: 414 km
apogee height: 1764 km
right ascension of ascending node: 108.2191°
argument of perigee: 61.8131°
revolutions per day: 13.45428059
mean anomaly at epoch: 298.1869°
orbit number at epoch: 0

The dashed part of the orbit path shows where the satellite is in the earth's shadow,  

DLR